TimeEST,TemperatureF,Dew PointF,Humidity,Sea Level PressureIn,VisibilityMPH,Wind Direction,Wind SpeedMPH,Gust SpeedMPH,PrecipitationIn,Events,Conditions,WindDirDegrees,DateUTC
12:53 AM,48.0,46.0,93,30.04,8.0,NE,5.8,-,N/A,,Overcast,50,2012-12-09 05:53:00
1:40 AM,48.2,46.4,93,30.05,8.0,NE,5.8,-,N/A,,Overcast,40,2012-12-09 06:40:00
1:53 AM,48.0,46.0,93,30.04,8.0,NE,5.8,-,N/A,,Overcast,50,2012-12-09 06:53:00
2:19 AM,48.2,46.4,93,30.04,8.0,NE,5.8,-,N/A,,Overcast,50,2012-12-09 07:19:00
2:53 AM,48.0,46.0,93,30.05,9.0,NE,5.8,-,N/A,,Overcast,40,2012-12-09 07:53:00
3:14 AM,48.2,46.4,93,30.05,9.0,NE,6.9,-,N/A,,Overcast,40,2012-12-09 08:14:00
3:45 AM,46.4,46.4,100,30.04,9.0,NE,6.9,-,N/A,,Overcast,50,2012-12-09 08:45:00
3:53 AM,46.9,45.0,93,30.04,9.0,NE,8.1,-,N/A,,Overcast,50,2012-12-09 08:53:00
4:53 AM,46.9,45.0,93,30.04,9.0,NE,6.9,-,N/A,,Overcast,50,2012-12-09 09:53:00
5:53 AM,46.9,45.0,93,30.02,10.0,NE,5.8,-,N/A,,Overcast,50,2012-12-09 10:53:00
6:53 AM,46.9,45.0,93,30.02,10.0,NE,6.9,-,N/A,,Overcast,50,2012-12-09 11:53:00
7:53 AM,46.9,45.0,93,30.01,10.0,ENE,4.6,-,N/A,,Overcast,60,2012-12-09 12:53:00
8:33 AM,46.4,44.6,93,29.99,8.0,ESE,4.6,-,N/A,,Overcast,110,2012-12-09 13:33:00
8:53 AM,46.9,46.0,97,29.99,8.0,ENE,5.8,-,N/A,,Overcast,60,2012-12-09 13:53:00
9:53 AM,48.9,46.9,93,29.99,7.0,Calm,Calm,-,0.00,Rain,Light Rain,0,2012-12-09 14:53:00
10:53 AM,50.0,48.9,96,29.97,8.0,Calm,Calm,-,0.00,,Overcast,0,2012-12-09 15:53:00
11:53 AM,52.0,50.0,93,29.93,10.0,SSE,5.8,-,0.00,,Overcast,150,2012-12-09 16:53:00
12:53 PM,54.0,52.0,93,29.88,10.0,South,5.8,-,N/A,,Overcast,170,2012-12-09 17:53:00
1:53 PM,55.9,54.0,93,29.86,10.0,SSW,3.5,-,N/A,,Overcast,210,2012-12-09 18:53:00
2:53 PM,59.0,55.9,90,29.83,10.0,SSW,3.5,-,N/A,,Overcast,200,2012-12-09 19:53:00
3:00 PM,59.0,57.2,94,29.83,10.0,South,3.5,-,N/A,,Overcast,180,2012-12-09 20:00:00
3:53 PM,57.9,57.0,97,29.83,10.0,Calm,Calm,-,0.00,Rain,Light Rain,0,2012-12-09 20:53:00
4:53 PM,60.1,57.9,93,29.83,10.0,South,8.1,-,0.00,,Overcast,190,2012-12-09 21:53:00
5:36 PM,59.0,57.2,94,29.81,10.0,South,5.8,-,0.00,Rain,Light Rain,190,2012-12-09 22:36:00
5:53 PM,60.1,59.0,96,29.80,10.0,South,5.8,-,0.00,Rain,Light Rain,170,2012-12-09 22:53:00
6:49 PM,60.8,59.0,94,29.79,10.0,South,6.9,-,0.00,,Mostly Cloudy,190,2012-12-09 23:49:00
6:53 PM,60.1,59.0,96,29.79,10.0,SSW,10.4,-,0.00,,Mostly Cloudy,200,2012-12-09 23:53:00
7:53 PM,60.1,59.0,96,29.78,10.0,South,11.5,-,N/A,,Overcast,190,2012-12-10 00:53:00
8:03 PM,60.8,59.0,94,29.77,10.0,South,9.2,-,N/A,,Overcast,180,2012-12-10 01:03:00
8:11 PM,60.8,59.0,94,29.76,10.0,South,8.1,-,N/A,,Overcast,180,2012-12-10 01:11:00
8:41 PM,59.0,59.0,100,29.75,5.0,South,8.1,-,0.04,Rain-Thunderstorm,Thunderstorms and Rain,190,2012-12-10 01:41:00
8:53 PM,55.9,54.0,93,29.75,4.0,WSW,5.8,33.4,0.21,Rain-Thunderstorm,Heavy Thunderstorms and Rain,250,2012-12-10 01:53:00
8:56 PM,55.4,53.6,94,29.75,1.8,South,4.6,-,0.00,Rain-Thunderstorm,Thunderstorms and Rain,190,2012-12-10 01:56:00
8:58 PM,55.4,53.6,94,29.75,3.0,South,3.5,-,0.00,Rain-Thunderstorm,Light Thunderstorms and Rain,170,2012-12-10 01:58:00
9:19 PM,53.6,53.6,100,29.74,2.5,South,3.5,-,0.05,Rain,Heavy Rain,180,2012-12-10 02:19:00
9:35 PM,53.6,53.6,100,29.77,3.0,SW,9.2,-,0.16,Rain-Thunderstorm,Heavy Thunderstorms and Rain,230,2012-12-10 02:35:00
9:53 PM,55.0,54.0,96,29.75,9.0,SSW,9.2,-,0.16,Rain-Thunderstorm,Light Thunderstorms and Rain,210,2012-12-10 02:53:00
10:24 PM,55.4,55.4,100,29.75,9.0,SSW,6.9,-,0.00,Rain,Light Rain,210,2012-12-10 03:24:00
10:53 PM,55.0,55.0,100,29.75,4.0,South,10.4,-,0.09,Rain,Heavy Rain,190,2012-12-10 03:53:00
11:53 PM,55.0,55.0,100,29.74,6.0,South,6.9,-,0.13,Rain,Rain,190,2012-12-10 04:53:00